LHX3PP EDDM-ESGG

Flight info

Callsign LHX3PP
Flight time 1h 30m
Altitude 36000
Route INPUD3E INPUD Y102 UPALA M726 LASGA DCT NEDIK/N0440F380 DCT ROKAM L997 RISMA
Aircraft A20N/M-SDE2E3FGHIRWXY/LB1

Departure

Time 2026-05-04 14:24
Airport Munich Airport (EDDM)

Arrival

Time 2026-05-04 15:54
Airport Göteborg Landvetter Airport (ESGG)
Time Latitude Longitude Altitude Speed Heading
2026-05-04 13:21 48.35208 11.79791 1476 ft 0 kts 83°
2026-05-04 14:12 48.35207 11.79773 1476 ft 2 kts 83°
2026-05-04 14:12 48.35205 11.79750 1476 ft 2 kts 84°
2026-05-04 14:12 48.35202 11.79706 1476 ft 2 kts 84°
2026-05-04 14:13 48.35200 11.79683 1477 ft 2 kts 83°
2026-05-04 14:13 48.35199 11.79667 1477 ft 0 kts 84°
2026-05-04 14:13 48.35195 11.79648 1477 ft 2 kts 48°
2026-05-04 14:13 48.35183 11.79636 1477 ft 2 kts
2026-05-04 14:14 48.35176 11.79636 1477 ft 1 kts 347°
2026-05-04 14:14 48.35171 11.79637 1477 ft 0 kts 353°
2026-05-04 14:16 48.35174 11.79637 1477 ft 1 kts 353°
2026-05-04 14:16 48.35189 11.79634 1477 ft 3 kts 354°
2026-05-04 14:17 48.35287 11.79619 1476 ft 10 kts 353°
2026-05-04 14:17 48.35370 11.79605 1476 ft 13 kts 353°
2026-05-04 14:17 48.35589 11.79567 1475 ft 18 kts 354°
2026-05-04 14:18 48.35722 11.79545 1474 ft 20 kts 353°
2026-05-04 14:18 48.36019 11.79492 1472 ft 18 kts 354°
2026-05-04 14:19 48.36090 11.79256 1473 ft 16 kts 264°
2026-05-04 14:19 48.36075 11.79075 1474 ft 17 kts 263°
2026-05-04 14:19 48.36060 11.78882 1475 ft 19 kts 264°
2026-05-04 14:19 48.36045 11.78680 1476 ft 20 kts 264°
2026-05-04 14:20 48.36028 11.78466 1476 ft 21 kts 264°
2026-05-04 14:20 48.36011 11.78244 1477 ft 22 kts 264°
2026-05-04 14:20 48.35994 11.78011 1477 ft 22 kts 263°
2026-05-04 14:21 48.35956 11.77521 1478 ft 24 kts 263°
2026-05-04 14:21 48.35936 11.77267 1479 ft 24 kts 264°
2026-05-04 14:21 48.35936 11.77071 1479 ft 11 kts 304°
2026-05-04 14:21 48.36000 11.76981 1479 ft 14 kts 342°
2026-05-04 14:22 48.36091 11.76966 1478 ft 14 kts 354°
2026-05-04 14:22 48.36174 11.76951 1478 ft 3 kts 353°
2026-05-04 14:22 48.36177 11.76951 1478 ft 0 kts 353°
2026-05-04 14:22 48.36180 11.76950 1478 ft 2 kts 354°
2026-05-04 14:23 48.36299 11.77045 1477 ft 17 kts 85°
2026-05-04 14:23 48.36322 11.77371 1476 ft 60 kts 84°
2026-05-04 14:23 48.36401 11.78364 1474 ft 126 kts 84°
2026-05-04 14:24 48.36515 11.79931 1551 ft 168 kts 83°
2026-05-04 14:24 48.36650 11.81652 2125 ft 168 kts 82°
2026-05-04 14:24 48.36816 11.83416 2724 ft 174 kts 81°
2026-05-04 14:24 48.37016 11.85224 3334 ft 178 kts 72°
2026-05-04 14:25 48.37790 11.86671 3690 ft 193 kts 27°
2026-05-04 14:25 48.40732 11.86746 4362 ft 240 kts 349°
2026-05-04 14:25 48.42256 11.85535 4753 ft 265 kts 318°
2026-05-04 14:26 48.43549 11.83465 5267 ft 282 kts 313°
2026-05-04 14:26 48.44870 11.81189 5898 ft 294 kts 311°
2026-05-04 14:26 48.46199 11.78824 6620 ft 302 kts 310°
2026-05-04 14:26 48.47561 11.76384 7414 ft 308 kts 310°
2026-05-04 14:27 48.49078 11.74108 8185 ft 314 kts 328°
2026-05-04 14:27 48.51006 11.72690 9052 ft 314 kts 335°
2026-05-04 14:27 48.52994 11.71380 9965 ft 314 kts 335°
2026-05-04 14:27 48.55019 11.70053 10710 ft 319 kts 335°
2026-05-04 14:28 48.57054 11.68708 11487 ft 322 kts 335°
2026-05-04 14:28 48.59110 11.67338 12282 ft 324 kts 335°
2026-05-04 14:28 48.61156 11.65949 13037 ft 327 kts 333°
2026-05-04 14:28 48.63218 11.64479 13749 ft 330 kts 333°
2026-05-04 14:29 48.67354 11.61445 15236 ft 335 kts 332°
2026-05-04 14:29 48.71559 11.58384 16583 ft 341 kts 332°
2026-05-04 14:30 48.73707 11.56830 17248 ft 345 kts 332°
2026-05-04 14:30 48.75887 11.55255 17905 ft 347 kts 332°
2026-05-04 14:30 48.80238 11.52112 19170 ft 353 kts 332°
2026-05-04 14:31 48.82485 11.50488 19806 ft 356 kts 332°
2026-05-04 14:31 48.86958 11.47253 21045 ft 361 kts 332°
2026-05-04 14:32 48.91526 11.43943 22288 ft 366 kts 332°
2026-05-04 14:32 48.93805 11.42288 22883 ft 368 kts 332°
2026-05-04 14:32 48.96126 11.40601 23480 ft 370 kts 332°
2026-05-04 14:32 48.98432 11.38924 24073 ft 373 kts 331°
2026-05-04 14:33 49.00790 11.37206 24632 ft 376 kts 331°
2026-05-04 14:33 49.03147 11.35487 24931 ft 378 kts 331°
2026-05-04 14:33 49.05503 11.33768 24943 ft 378 kts 330°
2026-05-04 14:33 49.07906 11.32013 24944 ft 378 kts 330°
2026-05-04 14:34 49.10299 11.30264 24944 ft 378 kts 330°
2026-05-04 14:34 49.12713 11.28495 25093 ft 384 kts 330°
2026-05-04 14:34 49.15171 11.26694 25659 ft 385 kts 330°
2026-05-04 14:34 49.17649 11.24878 26270 ft 385 kts 330°
2026-05-04 14:35 49.20164 11.23269 26779 ft 391 kts 339°
2026-05-04 14:35 49.22906 11.22316 27277 ft 398 kts 349°
2026-05-04 14:35 49.25675 11.22064 27742 ft 403 kts 356°
2026-05-04 14:35 49.28496 11.22084 28189 ft 406 kts 357°
2026-05-04 14:36 49.31293 11.22145 28597 ft 409 kts 357°
2026-05-04 14:36 49.34146 11.22199 28994 ft 411 kts 356°
2026-05-04 14:36 49.37006 11.22240 29408 ft 413 kts 356°
2026-05-04 14:36 49.39891 11.22273 29809 ft 415 kts 356°
2026-05-04 14:37 49.42758 11.22299 30166 ft 417 kts 356°
2026-05-04 14:37 49.45666 11.22324 30507 ft 419 kts 356°
2026-05-04 14:37 49.48551 11.22348 30831 ft 421 kts 356°
2026-05-04 14:37 49.51477 11.22371 31140 ft 423 kts 356°
2026-05-04 14:38 49.54445 11.22396 31444 ft 425 kts 356°
2026-05-04 14:38 49.57412 11.22411 31755 ft 427 kts 356°
2026-05-04 14:38 49.60374 11.22419 32048 ft 428 kts 356°
2026-05-04 14:38 49.63348 11.22424 32328 ft 430 kts 356°
2026-05-04 14:39 49.66336 11.22428 32607 ft 432 kts 356°
2026-05-04 14:39 49.69329 11.22433 32864 ft 433 kts 356°
2026-05-04 14:39 49.72352 11.22438 33118 ft 435 kts 356°
2026-05-04 14:40 49.78400 11.22452 33595 ft 439 kts 356°
2026-05-04 14:40 49.81438 11.22469 33867 ft 439 kts 356°
2026-05-04 14:40 49.84478 11.22489 34191 ft 439 kts 356°
2026-05-04 14:40 49.87536 11.22510 34520 ft 438 kts 356°
2026-05-04 14:41 49.90570 11.22531 34825 ft 437 kts 356°
2026-05-04 14:41 49.93584 11.22549 35088 ft 436 kts 356°
2026-05-04 14:41 49.99624 11.22582 35590 ft 434 kts 356°
2026-05-04 14:42 50.05642 11.22616 36047 ft 433 kts 356°
2026-05-04 14:42 50.08615 11.22634 36258 ft 433 kts 356°
2026-05-04 14:42 50.11651 11.22651 36460 ft 432 kts 356°
2026-05-04 14:43 50.14614 11.22670 36651 ft 432 kts 356°
2026-05-04 14:43 50.17641 11.22688 36854 ft 432 kts 356°
2026-05-04 14:43 50.20636 11.22706 37077 ft 431 kts 356°
2026-05-04 14:43 50.23613 11.22723 37284 ft 432 kts 356°
2026-05-04 14:44 50.26622 11.22739 37453 ft 433 kts 356°
2026-05-04 14:44 50.29596 11.22756 37605 ft 434 kts 356°
2026-05-04 14:44 50.32612 11.22773 37754 ft 434 kts 356°
2026-05-04 14:44 50.35620 11.22880 37896 ft 437 kts 359°
2026-05-04 14:45 50.41700 11.23790 37948 ft 444 kts
2026-05-04 14:45 50.47861 11.24952 37949 ft 451 kts
2026-05-04 14:46 50.54109 11.26131 37945 ft 456 kts
2026-05-04 14:46 50.60424 11.27317 37938 ft 456 kts
2026-05-04 14:47 50.66682 11.28486 37933 ft 457 kts
2026-05-04 14:47 50.72986 11.29678 37931 ft 456 kts
2026-05-04 14:48 50.79284 11.30867 37925 ft 457 kts
2026-05-04 14:48 50.85579 11.32055 37919 ft 457 kts
2026-05-04 14:49 50.91866 11.33243 37917 ft 458 kts
2026-05-04 14:49 50.98183 11.34441 37917 ft 457 kts
2026-05-04 14:50 51.04448 11.35632 37923 ft 457 kts
2026-05-04 14:50 51.10748 11.36833 37922 ft 457 kts
2026-05-04 14:51 51.17044 11.38036 37935 ft 457 kts
2026-05-04 14:51 51.23342 11.39242 37928 ft 457 kts
2026-05-04 14:52 51.29664 11.40456 37929 ft 457 kts
2026-05-04 14:52 51.35951 11.41667 37931 ft 458 kts
2026-05-04 14:53 51.42267 11.42887 37934 ft 457 kts
2026-05-04 14:53 51.48560 11.44108 37940 ft 458 kts
2026-05-04 14:54 51.54830 11.45327 37931 ft 457 kts
2026-05-04 14:54 51.61162 11.46560 37927 ft 458 kts
2026-05-04 14:55 51.67460 11.47790 37923 ft 457 kts
2026-05-04 14:55 51.73748 11.49021 37926 ft 457 kts
2026-05-04 14:56 51.80007 11.50250 37938 ft 457 kts
2026-05-04 14:56 51.86308 11.51491 37927 ft 457 kts
2026-05-04 14:57 51.92623 11.52738 37937 ft 457 kts
2026-05-04 14:57 51.98904 11.53982 37914 ft 458 kts
2026-05-04 14:58 52.05220 11.55237 37917 ft 458 kts
2026-05-04 14:58 52.11530 11.56494 37932 ft 458 kts
2026-05-04 14:59 52.17799 11.57748 37908 ft 457 kts
2026-05-04 15:00 52.27231 11.59639 37923 ft 457 kts
2026-05-04 15:00 52.33542 11.60910 37920 ft 456 kts
2026-05-04 15:01 52.42953 11.62809 37916 ft 457 kts
2026-05-04 15:01 52.49250 11.64084 37921 ft 457 kts
2026-05-04 15:02 52.55527 11.65360 37920 ft 458 kts
2026-05-04 15:02 52.61833 11.66646 37906 ft 458 kts
2026-05-04 15:03 52.68122 11.67934 37921 ft 458 kts
2026-05-04 15:03 52.74449 11.69232 37926 ft 459 kts
2026-05-04 15:04 52.80771 11.70532 37941 ft 459 kts
2026-05-04 15:04 52.87087 11.71835 37939 ft 459 kts
2026-05-04 15:05 52.93411 11.73142 37919 ft 460 kts
2026-05-04 15:05 52.99704 11.74446 37930 ft 459 kts
2026-05-04 15:06 53.06050 11.75768 37936 ft 460 kts
2026-05-04 15:07 53.15508 11.77741 37937 ft 459 kts
2026-05-04 15:07 53.21847 11.79069 37914 ft 459 kts
2026-05-04 15:08 53.28141 11.80393 37938 ft 459 kts
2026-05-04 15:08 53.34462 11.81728 37927 ft 459 kts
2026-05-04 15:09 53.40792 11.83066 37937 ft 459 kts
2026-05-04 15:09 53.47127 11.84412 37932 ft 458 kts
2026-05-04 15:10 53.56579 11.86423 37947 ft 458 kts
2026-05-04 15:11 53.66026 11.88443 37925 ft 458 kts
2026-05-04 15:11 53.72301 11.89790 37939 ft 459 kts
2026-05-04 15:12 53.78631 11.91153 37946 ft 460 kts
2026-05-04 15:12 53.84954 11.92521 37948 ft 459 kts
2026-05-04 15:13 53.91232 11.93883 37955 ft 457 kts
2026-05-04 15:13 53.97556 11.95253 37948 ft 457 kts
2026-05-04 15:14 54.03831 11.96621 37951 ft 457 kts
2026-05-04 15:14 54.10141 11.97998 37942 ft 458 kts
2026-05-04 15:15 54.16425 11.99375 37943 ft 458 kts
2026-05-04 15:15 54.22706 12.00754 37954 ft 458 kts
2026-05-04 15:16 54.32175 12.02847 37938 ft 457 kts
2026-05-04 15:17 54.41609 12.04939 37930 ft 457 kts
2026-05-04 15:17 54.51036 12.06675 37926 ft 454 kts 358°
2026-05-04 15:18 54.57294 12.07089 37920 ft 454 kts 357°
2026-05-04 15:19 54.66751 12.07647 37919 ft 454 kts 357°
2026-05-04 15:19 54.76144 12.08228 37915 ft 454 kts 357°
2026-05-04 15:20 54.82429 12.08620 37917 ft 453 kts 357°
2026-05-04 15:20 54.88713 12.09013 37898 ft 453 kts 357°
2026-05-04 15:21 54.94999 12.09412 37907 ft 454 kts 357°
2026-05-04 15:22 55.04446 12.10008 37917 ft 454 kts 357°
2026-05-04 15:22 55.13869 12.10609 37912 ft 454 kts 357°
2026-05-04 15:23 55.20110 12.11008 37911 ft 452 kts 357°
2026-05-04 15:23 55.26368 12.11410 37906 ft 452 kts 357°
2026-05-04 15:24 55.38902 12.12215 37910 ft 452 kts 358°
2026-05-04 15:25 55.45164 12.12620 37910 ft 452 kts 358°
2026-05-04 15:26 55.54523 12.13228 37913 ft 451 kts 357°
2026-05-04 15:26 55.63902 12.13839 37917 ft 450 kts 358°
2026-05-04 15:27 55.73250 12.14453 37912 ft 450 kts 357°
2026-05-04 15:28 55.82609 12.15068 37898 ft 450 kts 358°
2026-05-04 15:29 55.91928 12.15684 37898 ft 449 kts 358°
2026-05-04 15:30 56.04311 12.16509 37239 ft 443 kts 358°
2026-05-04 15:30 56.13527 12.17118 35454 ft 447 kts 358°
2026-05-04 15:31 56.19710 12.17532 34392 ft 446 kts 358°
2026-05-04 15:31 56.22813 12.17739 33719 ft 446 kts 358°
2026-05-04 15:32 56.32029 12.17944 31554 ft 444 kts 353°
2026-05-04 15:32 56.38085 12.16620 30173 ft 438 kts 348°
2026-05-04 15:33 56.44031 12.14950 29007 ft 429 kts 347°
2026-05-04 15:34 56.52754 12.12496 27252 ft 418 kts 347°
2026-05-04 15:34 56.55568 12.11712 26684 ft 414 kts 347°
2026-05-04 15:34 56.61223 12.10138 25522 ft 408 kts 346°
2026-05-04 15:35 56.66723 12.08597 24422 ft 401 kts 346°
2026-05-04 15:35 56.69447 12.07830 23860 ft 398 kts 346°
2026-05-04 15:35 56.72162 12.07063 23308 ft 395 kts 346°
2026-05-04 15:36 56.77541 12.05540 22225 ft 388 kts 345°
2026-05-04 15:36 56.80181 12.04790 21689 ft 385 kts 345°
2026-05-04 15:36 56.82801 12.04045 21156 ft 382 kts 345°
2026-05-04 15:37 56.85418 12.03298 20628 ft 379 kts 345°
2026-05-04 15:37 56.87974 12.02570 20109 ft 376 kts 345°
2026-05-04 15:37 56.90562 12.01833 19578 ft 373 kts 345°
2026-05-04 15:37 56.93083 12.01113 19068 ft 370 kts 345°
2026-05-04 15:38 56.95633 12.00386 18536 ft 368 kts 344°
2026-05-04 15:38 56.98128 11.99671 18025 ft 365 kts 344°
2026-05-04 15:38 57.00626 11.98955 17533 ft 362 kts 344°
2026-05-04 15:38 57.03099 11.98292 17034 ft 361 kts 347°
2026-05-04 15:39 57.05587 11.97953 16540 ft 362 kts 352°
2026-05-04 15:39 57.08074 11.97887 16086 ft 359 kts 353°
2026-05-04 15:39 57.13052 11.97879 15576 ft 358 kts 353°
2026-05-04 15:40 57.15521 11.97876 15330 ft 357 kts 353°
2026-05-04 15:40 57.17999 11.97871 15083 ft 356 kts 353°
2026-05-04 15:40 57.20457 11.97863 14842 ft 354 kts 353°
2026-05-04 15:40 57.22909 11.97853 14597 ft 353 kts 353°
2026-05-04 15:41 57.25377 11.97844 14258 ft 351 kts 353°
2026-05-04 15:41 57.27818 11.97835 13868 ft 349 kts 353°
2026-05-04 15:41 57.30201 11.97824 13483 ft 347 kts 353°
2026-05-04 15:41 57.32605 11.97812 13076 ft 344 kts 354°
2026-05-04 15:42 57.34971 11.97802 12665 ft 342 kts 354°
2026-05-04 15:42 57.37363 11.97791 12246 ft 340 kts 354°
2026-05-04 15:42 57.39698 11.97781 11837 ft 337 kts 354°
2026-05-04 15:42 57.42004 11.97770 11437 ft 335 kts 354°
2026-05-04 15:43 57.44346 11.97759 11028 ft 333 kts 354°
2026-05-04 15:43 57.46630 11.97749 10622 ft 330 kts 354°
2026-05-04 15:43 57.48892 11.97740 10225 ft 328 kts 354°
2026-05-04 15:43 57.51163 11.97729 9836 ft 325 kts 354°
2026-05-04 15:44 57.53436 11.97719 9626 ft 326 kts 354°
2026-05-04 15:44 57.55687 11.98159 9199 ft 331 kts 10°
2026-05-04 15:44 57.57802 11.99785 8841 ft 335 kts 22°
2026-05-04 15:44 57.59873 12.01826 8466 ft 334 kts 23°
2026-05-04 15:45 57.61892 12.03863 8071 ft 331 kts 23°
2026-05-04 15:45 57.63895 12.05866 7694 ft 329 kts 23°
2026-05-04 15:45 57.65896 12.07847 7318 ft 327 kts 23°
2026-05-04 15:45 57.67905 12.09822 6936 ft 325 kts 23°
2026-05-04 15:46 57.69883 12.11769 6646 ft 317 kts 23°
2026-05-04 15:46 57.71818 12.13674 6363 ft 309 kts 23°
2026-05-04 15:46 57.73681 12.15509 6086 ft 301 kts 22°
2026-05-04 15:46 57.75505 12.17306 5809 ft 294 kts 22°
2026-05-04 15:47 57.77299 12.19074 5529 ft 288 kts 22°
2026-05-04 15:47 57.79047 12.20798 5251 ft 282 kts 22°
2026-05-04 15:47 57.80750 12.22481 4973 ft 272 kts 22°
2026-05-04 15:47 57.82372 12.24092 4691 ft 257 kts 22°
2026-05-04 15:48 57.83900 12.25608 4411 ft 247 kts 21°
2026-05-04 15:48 57.85416 12.27107 4125 ft 243 kts 22°
2026-05-04 15:48 57.87281 12.32125 3485 ft 248 kts 85°
2026-05-04 15:49 57.87267 12.35353 3298 ft 245 kts 91°
2026-05-04 15:49 57.87194 12.38522 3098 ft 242 kts 92°
2026-05-04 15:49 57.86773 12.41470 2891 ft 234 kts 129°
2026-05-04 15:49 57.85545 12.43201 2769 ft 216 kts 173°
2026-05-04 15:50 57.84124 12.43230 2650 ft 201 kts 194°
2026-05-04 15:50 57.82791 12.42727 2598 ft 192 kts 203°
2026-05-04 15:50 57.81544 12.41874 2540 ft 188 kts 210°
2026-05-04 15:50 57.80370 12.40837 2488 ft 187 kts 213°
2026-05-04 15:51 57.79215 12.39763 2458 ft 178 kts 213°
2026-05-04 15:51 57.78162 12.38796 2439 ft 167 kts 213°
2026-05-04 15:51 57.77122 12.37843 2462 ft 166 kts 213°
2026-05-04 15:51 57.76083 12.36896 2371 ft 166 kts 213°
2026-05-04 15:52 57.75055 12.35966 2161 ft 163 kts 213°
2026-05-04 15:52 57.74058 12.35107 1930 ft 152 kts 213°
2026-05-04 15:52 57.73111 12.34295 1721 ft 150 kts 213°
2026-05-04 15:52 57.72168 12.33405 1593 ft 152 kts 215°
2026-05-04 15:53 57.71226 12.32478 1331 ft 153 kts 213°
2026-05-04 15:53 57.70295 12.31659 1095 ft 146 kts 212°
2026-05-04 15:53 57.69415 12.30840 915 ft 140 kts 212°
2026-05-04 15:53 57.68548 12.30049 735 ft 137 kts 211°
2026-05-04 15:54 57.67691 12.29269 561 ft 134 kts 210°
2026-05-04 15:54 57.66906 12.28541 508 ft 115 kts 206°
2026-05-04 15:54 57.66373 12.28057 509 ft 56 kts 206°
2026-05-04 15:54 57.66114 12.27826 505 ft 36 kts 205°
2026-05-04 15:55 57.65908 12.27678 505 ft 27 kts 190°
2026-05-04 15:55 57.65762 12.27672 505 ft 12 kts 172°
2026-05-04 15:55 57.65714 12.27750 506 ft 9 kts 101°
2026-05-04 15:55 57.65754 12.27844 506 ft 13 kts 27°
2026-05-04 15:56 57.65857 12.27937 507 ft 19 kts 26°
2026-05-04 15:56 57.65995 12.28065 506 ft 25 kts 26°
2026-05-04 15:56 57.66144 12.28200 509 ft 22 kts 26°
2026-05-04 15:56 57.66272 12.28317 510 ft 13 kts 26°
2026-05-04 15:57 57.66297 12.28341 510 ft 0 kts 26°
2026-05-04 15:57 57.66301 12.28344 510 ft 4 kts 26°
2026-05-04 15:57 57.66401 12.28434 511 ft 22 kts 24°
2026-05-04 15:57 57.66553 12.28573 511 ft 21 kts 26°
2026-05-04 15:58 57.66696 12.28703 507 ft 20 kts 26°
2026-05-04 15:58 57.66794 12.28792 507 ft 14 kts 26°
2026-05-04 15:58 57.66821 12.28913 511 ft 9 kts 110°
2026-05-04 15:58 57.66806 12.28974 515 ft 1 kts 116°
2026-05-04 15:59 57.66803 12.28983 516 ft 3 kts 116°
2026-05-04 15:59 57.66779 12.29076 518 ft 9 kts 115°
2026-05-04 15:59 57.66754 12.29173 518 ft 7 kts 114°
2026-05-04 15:59 57.66737 12.29241 518 ft 4 kts 117°
2026-05-04 16:00 57.66729 12.29269 518 ft 0 kts 116°
2026-05-04 16:00 57.66727 12.29276 518 ft 0 kts 116°
2026-05-04 16:00 57.66726 12.29280 518 ft 0 kts 116°